contact:dominique.lefevre@mio.osupytheas.fr, maurice.libes@osupytheas.fr, didier.mallarino@osupytheas.fr
Project:EMSO http://www.emso-fr.org/EMSO-France
Depth: 2436.0 m
Title:EMSO Ligure Ouest : Data MII capteur MICROCAT
DateTime_Computer,Latitude,Longitude,Temperature,Conductivity,Pressure,DateTime_Instrument
DateTime_Computer,Latitude,Longitude,degC,S m-1,dbar,DateTime_Instrument
2024-01-05T00:00:49Z,42.805,6.029,13.3043,4.60122,2470.763,2024-1-05T02:03:21Z
2024-01-05T00:03:52Z,42.805,6.029,13.3046,4.60123,2470.787,2024-1-05T02:06:24Z
2024-01-05T00:06:55Z,42.805,6.029,13.3043,4.60122,2470.754,2024-1-05T02:09:27Z
2024-01-05T00:09:59Z,42.805,6.029,13.3042,4.60122,2470.81,2024-1-05T02:12:30Z
2024-01-05T00:13:02Z,42.805,6.029,13.3053,4.60122,2470.763,2024-1-05T02:15:33Z
2024-01-05T00:16:05Z,42.805,6.029,13.3044,4.60122,2470.787,2024-1-05T02:18:36Z
2024-01-05T00:19:08Z,42.805,6.029,13.3041,4.60122,2470.787,2024-1-05T02:21:39Z
2024-01-05T00:22:11Z,42.805,6.029,13.3044,4.60122,2470.787,2024-1-05T02:24:42Z
2024-01-05T00:25:14Z,42.805,6.029,13.3039,4.60124,2470.81,2024-1-05T02:27:45Z
2024-01-05T00:28:17Z,42.805,6.029,13.3046,4.60122,2470.777,2024-1-05T02:30:49Z
2024-01-05T00:31:20Z,42.805,6.029,13.3046,4.60122,2470.787,2024-1-05T02:33:52Z
2024-01-05T00:34:23Z,42.805,6.029,13.3046,4.60121,2470.763,2024-1-05T02:36:55Z
2024-01-05T00:37:26Z,42.805,6.029,13.3043,4.60122,2470.763,2024-1-05T02:39:58Z
2024-01-05T00:40:29Z,42.805,6.029,13.3045,4.60122,2470.796,2024-1-05T02:43:01Z
2024-01-05T00:43:32Z,42.805,6.029,13.3045,4.60122,2470.787,2024-1-05T02:46:04Z
2024-01-05T00:46:35Z,42.805,6.029,13.3047,4.60122,2470.787,2024-1-05T02:49:07Z
2024-01-05T00:49:39Z,42.805,6.029,13.3040,4.60122,2470.787,2024-1-05T02:52:10Z
2024-01-05T00:52:42Z,42.805,6.029,13.3041,4.60122,2470.787,2024-1-05T02:55:13Z
2024-01-05T00:55:45Z,42.805,6.029,13.3042,4.60124,2470.787,2024-1-05T02:58:16Z
2024-01-05T00:58:48Z,42.805,6.029,13.3044,4.60122,2470.787,2024-1-05T03:01:19Z
2024-01-05T01:01:51Z,42.805,6.029,13.3044,4.60122,2470.824,2024-1-05T03:04:22Z
2024-01-05T01:04:54Z,42.805,6.029,13.3045,4.60122,2470.763,2024-1-05T03:07:25Z
2024-01-05T01:07:57Z,42.805,6.029,13.3045,4.60122,2470.787,2024-1-05T03:10:29Z
2024-01-05T01:11:00Z,42.805,6.029,13.3040,4.60125,2470.787,2024-1-05T03:13:32Z
2024-01-05T01:14:03Z,42.805,6.029,13.3046,4.60122,2470.777,2024-1-05T03:16:35Z
2024-01-05T01:17:06Z,42.805,6.029,13.3043,4.60122,2470.787,2024-1-05T03:19:38Z
2024-01-05T01:20:09Z,42.805,6.029,13.3043,4.60125,2470.81,2024-1-05T03:22:41Z
2024-01-05T01:23:12Z,42.805,6.029,13.3046,4.60122,2470.787,2024-1-05T03:25:44Z
2024-01-05T01:26:15Z,42.805,6.029,13.3046,4.60122,2470.824,2024-1-05T03:28:47Z
2024-01-05T01:29:19Z,42.805,6.029,13.3038,4.60123,2470.787,2024-1-05T03:31:50Z
2024-01-05T01:32:22Z,42.805,6.029,13.3044,4.60123,2470.777,2024-1-05T03:34:53Z
2024-01-05T01:35:25Z,42.805,6.029,13.3042,4.60122,2470.81,2024-1-05T03:37:56Z
2024-01-05T01:38:28Z,42.805,6.029,13.3046,4.60122,2470.787,2024-1-05T03:40:59Z
2024-01-05T01:41:31Z,42.805,6.029,13.3043,4.60122,2470.81,2024-1-05T03:44:02Z
2024-01-05T01:44:34Z,42.805,6.029,13.3043,4.60122,2470.787,2024-1-05T03:47:05Z
2024-01-05T01:47:37Z,42.805,6.029,13.3046,4.60123,2470.787,2024-1-05T03:50:09Z
2024-01-05T01:50:40Z,42.805,6.029,13.3043,4.60122,2470.8,2024-1-05T03:53:12Z
2024-01-05T01:53:43Z,42.805,6.029,13.3046,4.60124,2470.763,2024-1-05T03:56:15Z
2024-01-05T01:56:46Z,42.805,6.029,13.3043,4.60123,2470.81,2024-1-05T03:59:18Z
2024-01-05T01:59:49Z,42.805,6.029,13.3044,4.60126,2470.8,2024-1-05T04:02:21Z
2024-01-05T02:02:52Z,42.805,6.029,13.3043,4.60122,2470.824,2024-1-05T04:05:24Z
2024-01-05T02:05:55Z,42.805,6.029,13.3043,4.60122,2470.833,2024-1-05T04:08:27Z
2024-01-05T02:08:59Z,42.805,6.029,13.3044,4.60122,2470.787,2024-1-05T04:11:30Z
2024-01-05T02:12:02Z,42.805,6.029,13.3039,4.60122,2470.787,2024-1-05T04:14:33Z
2024-01-05T02:15:05Z,42.805,6.029,13.3044,4.60122,2470.8,2024-1-05T04:17:36Z
2024-01-05T02:18:08Z,42.805,6.029,13.3043,4.60122,2470.824,2024-1-05T04:20:39Z
2024-01-05T02:21:11Z,42.805,6.029,13.3040,4.60122,2470.787,2024-1-05T04:23:42Z
2024-01-05T02:24:14Z,42.805,6.029,13.3043,4.60123,2470.787,2024-1-05T04:26:46Z
2024-01-05T02:27:17Z,42.805,6.029,13.3041,4.60122,2470.81,2024-1-05T04:29:49Z
2024-01-05T02:30:20Z,42.805,6.029,13.3048,4.60123,2470.8,2024-1-05T04:32:52Z
2024-01-05T02:33:23Z,42.805,6.029,13.3044,4.60122,2470.81,2024-1-05T04:35:55Z
2024-01-05T02:36:26Z,42.805,6.029,13.3046,4.60123,2470.81,2024-1-05T04:38:58Z
2024-01-05T02:39:29Z,42.805,6.029,13.3048,4.60122,2470.81,2024-1-05T04:42:01Z
2024-01-05T02:42:32Z,42.805,6.029,13.3045,4.60122,2470.81,2024-1-05T04:45:04Z
2024-01-05T02:45:36Z,42.805,6.029,13.3041,4.60125,2470.763,2024-1-05T04:48:07Z
2024-01-05T02:48:39Z,42.805,6.029,13.3045,4.60122,2470.8,2024-1-05T04:51:10Z
2024-01-05T02:51:42Z,42.805,6.029,13.3043,4.60123,2470.763,2024-1-05T04:54:13Z
2024-01-05T02:54:45Z,42.805,6.029,13.3045,4.60122,2470.787,2024-1-05T04:57:16Z
2024-01-05T02:57:48Z,42.805,6.029,13.3040,4.60122,2470.763,2024-1-05T05:00:19Z
2024-01-05T03:00:51Z,42.805,6.029,13.3043,4.60123,2470.8,2024-1-05T05:03:22Z
2024-01-05T03:03:54Z,42.805,6.029,13.3050,4.60122,2470.787,2024-1-05T05:06:26Z
2024-01-05T03:06:57Z,42.805,6.029,13.3044,4.60122,2470.81,2024-1-05T05:09:29Z
2024-01-05T03:10:00Z,42.805,6.029,13.3043,4.60124,2470.8,2024-1-05T05:12:32Z
2024-01-05T03:13:03Z,42.805,6.029,13.3042,4.60125,2470.81,2024-1-05T05:15:35Z
2024-01-05T03:16:06Z,42.805,6.029,13.3047,4.60125,2470.8,2024-1-05T05:18:38Z
2024-01-05T03:19:09Z,42.805,6.029,13.3043,4.60122,2470.787,2024-1-05T05:21:41Z
2024-01-05T03:22:12Z,42.805,6.029,13.3044,4.60122,2470.763,2024-1-05T05:24:44Z
2024-01-05T03:25:16Z,42.805,6.029,13.3043,4.60122,2470.763,2024-1-05T05:27:47Z
2024-01-05T03:28:19Z,42.805,6.029,13.3045,4.60122,2470.777,2024-1-05T05:30:50Z
2024-01-05T03:31:22Z,42.805,6.029,13.3043,4.60126,2470.8,2024-1-05T05:33:53Z
2024-01-05T03:34:25Z,42.805,6.029,13.3046,4.60123,2470.81,2024-1-05T05:36:56Z
2024-01-05T03:37:28Z,42.805,6.029,13.3046,4.60123,2470.763,2024-1-05T05:39:59Z
2024-01-05T03:40:31Z,42.805,6.029,13.3043,4.60123,2470.81,2024-1-05T05:43:02Z
2024-01-05T03:43:34Z,42.805,6.029,13.3043,4.60124,2470.787,2024-1-05T05:46:06Z
2024-01-05T03:46:37Z,42.805,6.029,13.3041,4.60123,2470.824,2024-1-05T05:49:09Z
2024-01-05T03:49:40Z,42.805,6.029,13.3045,4.60122,2470.777,2024-1-05T05:52:12Z
2024-01-05T03:52:43Z,42.805,6.029,13.3043,4.60123,2470.763,2024-1-05T05:55:15Z
2024-01-05T03:55:46Z,42.805,6.029,13.3046,4.60129,2470.787,2024-1-05T05:58:18Z
2024-01-05T03:58:49Z,42.805,6.029,13.3043,4.60124,2470.787,2024-1-05T06:01:21Z
2024-01-05T04:01:52Z,42.805,6.029,13.3046,4.60123,2470.763,2024-1-05T06:04:24Z
2024-01-05T04:04:55Z,42.805,6.029,13.3043,4.60125,2470.763,2024-1-05T06:07:27Z
2024-01-05T04:07:59Z,42.805,6.029,13.3044,4.60125,2470.787,2024-1-05T06:10:30Z
2024-01-05T04:11:02Z,42.805,6.029,13.3046,4.60123,2470.763,2024-1-05T06:13:33Z
2024-01-05T04:14:05Z,42.805,6.029,13.3043,4.60122,2470.787,2024-1-05T06:16:36Z
2024-01-05T04:17:08Z,42.805,6.029,13.3041,4.60123,2470.8,2024-1-05T06:19:39Z
2024-01-05T04:20:11Z,42.805,6.029,13.3043,4.60123,2470.81,2024-1-05T06:22:42Z
2024-01-05T04:23:14Z,42.805,6.029,13.3043,4.60123,2470.74,2024-1-05T06:25:46Z
2024-01-05T04:26:17Z,42.805,6.029,13.3043,4.60123,2470.777,2024-1-05T06:28:49Z
2024-01-05T04:29:20Z,42.805,6.029,13.3043,4.60126,2470.81,2024-1-05T06:31:52Z
2024-01-05T04:32:23Z,42.805,6.029,13.3043,4.60125,2470.787,2024-1-05T06:34:55Z
2024-01-05T04:35:26Z,42.805,6.029,13.3045,4.60127,2470.8,2024-1-05T06:37:58Z
2024-01-05T04:38:29Z,42.805,6.029,13.3042,4.60123,2470.787,2024-1-05T06:41:01Z
2024-01-05T04:41:32Z,42.805,6.029,13.3044,4.60123,2470.763,2024-1-05T06:44:04Z
2024-01-05T04:44:36Z,42.805,6.029,13.3046,4.60124,2470.8,2024-1-05T06:47:07Z
2024-01-05T04:47:39Z,42.805,6.029,13.3046,4.60126,2470.787,2024-1-05T06:50:10Z
2024-01-05T04:50:42Z,42.805,6.029,13.3047,4.60123,2470.824,2024-1-05T06:53:13Z
2024-01-05T04:53:45Z,42.805,6.029,13.3043,4.60125,2470.81,2024-1-05T06:56:16Z
2024-01-05T04:56:48Z,42.805,6.029,13.3043,4.60123,2470.8,2024-1-05T06:59:19Z
2024-01-05T04:59:51Z,42.805,6.029,13.3044,4.60126,2470.8,2024-1-05T07:02:22Z
2024-01-05T05:02:54Z,42.805,6.029,13.3046,4.60123,2470.777,2024-1-05T07:05:26Z
2024-01-05T05:05:57Z,42.805,6.029,13.3043,4.60125,2470.787,2024-1-05T07:08:29Z
2024-01-05T05:09:00Z,42.805,6.029,13.3049,4.60125,2470.777,2024-1-05T07:11:32Z
2024-01-05T05:12:03Z,42.805,6.029,13.3046,4.60124,2470.787,2024-1-05T07:14:35Z
2024-01-05T05:15:06Z,42.805,6.029,13.3046,4.60125,2470.824,2024-1-05T07:17:38Z
2024-01-05T05:18:09Z,42.805,6.029,13.3046,4.60123,2470.763,2024-1-05T07:20:41Z
2024-01-05T05:21:12Z,42.805,6.029,13.3042,4.60127,2470.787,2024-1-05T07:23:44Z
2024-01-05T05:24:16Z,42.805,6.029,13.3048,4.60125,2470.754,2024-1-05T07:26:47Z
2024-01-05T05:27:19Z,42.805,6.029,13.3047,4.60124,2470.763,2024-1-05T07:29:50Z
2024-01-05T05:30:22Z,42.805,6.029,13.3044,4.60125,2470.777,2024-1-05T07:32:54Z
2024-01-05T05:33:25Z,42.805,6.029,13.3042,4.60124,2470.763,2024-1-05T07:35:57Z
2024-01-05T05:36:28Z,42.805,6.029,13.3043,4.60123,2470.754,2024-1-05T07:39:00Z
2024-01-05T05:39:32Z,42.805,6.029,13.3043,4.60125,2470.763,2024-1-05T07:42:03Z
2024-01-05T05:42:35Z,42.805,6.029,13.3044,4.60126,2470.763,2024-1-05T07:45:06Z
2024-01-05T05:45:38Z,42.805,6.029,13.3047,4.60125,2470.763,2024-1-05T07:48:09Z
2024-01-05T05:48:41Z,42.805,6.029,13.3044,4.60126,2470.763,2024-1-05T07:51:12Z
2024-01-05T05:51:44Z,42.805,6.029,13.3047,4.60127,2470.8,2024-1-05T07:54:15Z
2024-01-05T05:54:47Z,42.805,6.029,13.3045,4.60125,2470.777,2024-1-05T07:57:19Z
2024-01-05T05:57:50Z,42.805,6.029,13.3044,4.60133,2470.74,2024-1-05T08:00:22Z
2024-01-05T06:00:53Z,42.805,6.029,13.3043,4.60125,2470.763,2024-1-05T08:03:25Z
2024-01-05T06:03:56Z,42.805,6.029,13.3046,4.60125,2470.763,2024-1-05T08:06:28Z
2024-01-05T06:06:59Z,42.805,6.029,13.3043,4.60124,2470.754,2024-1-05T08:09:31Z
2024-01-05T06:10:02Z,42.805,6.029,13.3043,4.60125,2470.763,2024-1-05T08:12:34Z
2024-01-05T06:13:05Z,42.805,6.029,13.3043,4.60127,2470.717,2024-1-05T08:15:37Z
2024-01-05T06:16:08Z,42.805,6.029,13.3044,4.60125,2470.8,2024-1-05T08:18:40Z
2024-01-05T06:19:12Z,42.805,6.029,13.3046,4.60126,2470.763,2024-1-05T08:21:43Z
2024-01-05T06:22:15Z,42.805,6.029,13.3048,4.60137,2470.74,2024-1-05T08:24:46Z
2024-01-05T06:25:18Z,42.805,6.029,13.3046,4.60129,2470.787,2024-1-05T08:27:49Z
2024-01-05T06:28:21Z,42.805,6.029,13.3046,4.60125,2470.81,2024-1-05T08:30:52Z
2024-01-05T06:31:24Z,42.805,6.029,13.3043,4.60125,2470.787,2024-1-05T08:33:55Z
2024-01-05T06:34:27Z,42.805,6.029,13.3043,4.60125,2470.754,2024-1-05T08:36:59Z
2024-01-05T06:37:30Z,42.805,6.029,13.3046,4.60127,2470.763,2024-1-05T08:40:02Z
2024-01-05T06:40:33Z,42.805,6.029,13.3045,4.60127,2470.787,2024-1-05T08:43:05Z
2024-01-05T06:43:36Z,42.805,6.029,13.3044,4.60128,2470.74,2024-1-05T08:46:08Z
2024-01-05T06:46:39Z,42.805,6.029,13.3045,4.60127,2470.787,2024-1-05T08:49:11Z
2024-01-05T06:49:42Z,42.805,6.029,13.3048,4.60128,2470.763,2024-1-05T08:52:14Z
2024-01-05T06:52:45Z,42.805,6.029,13.3043,4.60125,2470.763,2024-1-05T08:55:17Z
2024-01-05T06:55:48Z,42.805,6.029,13.3044,4.60125,2470.763,2024-1-05T08:58:20Z
2024-01-05T06:58:52Z,42.805,6.029,13.3045,4.60126,2470.777,2024-1-05T09:01:23Z
2024-01-05T07:01:55Z,42.805,6.029,13.3046,4.60125,2470.763,2024-1-05T09:04:26Z
2024-01-05T07:04:58Z,42.805,6.029,13.3043,4.60127,2470.763,2024-1-05T09:07:29Z
2024-01-05T07:08:01Z,42.805,6.029,13.3047,4.60127,2470.74,2024-1-05T09:10:32Z
2024-01-05T07:11:04Z,42.805,6.029,13.3041,4.60130,2470.74,2024-1-05T09:13:35Z
2024-01-05T07:14:07Z,42.805,6.029,13.3044,4.60128,2470.777,2024-1-05T09:16:39Z
2024-01-05T07:17:10Z,42.805,6.029,13.3043,4.60130,2470.74,2024-1-05T09:19:42Z
2024-01-05T07:20:13Z,42.805,6.029,13.3041,4.60128,2470.777,2024-1-05T09:22:45Z
2024-01-05T07:23:16Z,42.805,6.029,13.3046,4.60126,2470.787,2024-1-05T09:25:48Z
2024-01-05T07:26:19Z,42.805,6.029,13.3045,4.60127,2470.787,2024-1-05T09:28:51Z
2024-01-05T07:29:22Z,42.805,6.029,13.3043,4.60132,2470.763,2024-1-05T09:31:54Z
2024-01-05T07:32:26Z,42.805,6.029,13.3046,4.60127,2470.763,2024-1-05T09:34:57Z
2024-01-05T07:35:29Z,42.805,6.029,13.3044,4.60127,2470.787,2024-1-05T09:38:00Z
2024-01-05T07:38:32Z,42.805,6.029,13.3046,4.60160,2470.787,2024-1-05T09:41:03Z
2024-01-05T07:41:35Z,42.805,6.029,13.3045,4.60130,2470.777,2024-1-05T09:44:07Z
2024-01-05T07:44:38Z,42.805,6.029,13.3046,4.60129,2470.8,2024-1-05T09:47:10Z
2024-01-05T07:47:41Z,42.805,6.029,13.3047,4.60133,2470.763,2024-1-05T09:50:13Z
2024-01-05T07:50:44Z,42.805,6.029,13.3044,4.60128,2470.763,2024-1-05T09:53:16Z
2024-01-05T07:53:47Z,42.805,6.029,13.3048,4.60137,2470.74,2024-1-05T09:56:19Z
2024-01-05T07:56:50Z,42.805,6.029,13.3047,4.60131,2470.74,2024-1-05T09:59:22Z
2024-01-05T07:59:53Z,42.805,6.029,13.3043,4.60131,2470.763,2024-1-05T10:02:25Z
2024-01-05T08:02:57Z,42.805,6.029,13.3046,4.60132,2470.787,2024-1-05T10:05:28Z
2024-01-05T08:06:00Z,42.805,6.029,13.3046,4.60129,2470.8,2024-1-05T10:08:31Z
2024-01-05T08:09:03Z,42.805,6.029,13.3043,4.60133,2470.763,2024-1-05T10:11:34Z
2024-01-05T08:12:06Z,42.805,6.029,13.3045,4.60131,2470.763,2024-1-05T10:14:37Z
2024-01-05T08:15:09Z,42.805,6.029,13.3050,4.60132,2470.763,2024-1-05T10:17:40Z
2024-01-05T08:18:12Z,42.805,6.029,13.3050,4.60129,2470.777,2024-1-05T10:20:44Z
2024-01-05T08:21:15Z,42.805,6.029,13.3051,4.60133,2470.763,2024-1-05T10:23:47Z
2024-01-05T08:24:18Z,42.805,6.029,13.3046,4.60137,2470.777,2024-1-05T10:26:50Z
2024-01-05T08:27:21Z,42.805,6.029,13.3046,4.60132,2470.763,2024-1-05T10:29:53Z
2024-01-05T08:30:24Z,42.805,6.029,13.3048,4.60132,2470.787,2024-1-05T10:32:56Z
2024-01-05T08:33:27Z,42.805,6.029,13.3046,4.60137,2470.763,2024-1-05T10:35:59Z
2024-01-05T08:36:30Z,42.805,6.029,13.3049,4.60129,2470.74,2024-1-05T10:39:02Z
2024-01-05T08:39:34Z,42.805,6.029,13.3048,4.60132,2470.8,2024-1-05T10:42:05Z
2024-01-05T08:42:37Z,42.805,6.029,13.3054,4.60130,2470.777,2024-1-05T10:45:08Z
2024-01-05T08:45:40Z,42.805,6.029,13.3048,4.60131,2470.763,2024-1-05T10:48:11Z
2024-01-05T08:48:43Z,42.805,6.029,13.3056,4.60131,2470.787,2024-1-05T10:51:14Z
2024-01-05T08:51:46Z,42.805,6.029,13.3055,4.60134,2470.8,2024-1-05T10:54:17Z
2024-01-05T08:54:49Z,42.805,6.029,13.3048,4.60135,2470.787,2024-1-05T10:57:21Z
2024-01-05T08:57:52Z,42.805,6.029,13.3057,4.60134,2470.763,2024-1-05T11:00:24Z
2024-01-05T09:00:55Z,42.805,6.029,13.3054,4.60138,2470.824,2024-1-05T11:03:27Z
2024-01-05T09:03:58Z,42.805,6.029,13.3056,4.60135,2470.787,2024-1-05T11:06:30Z
2024-01-05T09:07:01Z,42.805,6.029,13.3062,4.60132,2470.773,2024-1-05T11:09:33Z
2024-01-05T09:10:04Z,42.805,6.029,13.3063,4.60131,2470.8,2024-1-05T11:12:36Z
2024-01-05T09:13:07Z,42.805,6.029,13.3056,4.60131,2470.787,2024-1-05T11:15:39Z
2024-01-05T09:16:11Z,42.805,6.029,13.3058,4.60130,2470.81,2024-1-05T11:18:42Z
2024-01-05T09:19:14Z,42.805,6.029,13.3054,4.60132,2470.8,2024-1-05T11:21:45Z
2024-01-05T09:22:17Z,42.805,6.029,13.3052,4.60131,2470.787,2024-1-05T11:24:48Z
2024-01-05T09:25:20Z,42.805,6.029,13.3061,4.60132,2470.824,2024-1-05T11:27:51Z
2024-01-05T09:28:23Z,42.805,6.029,13.3060,4.60135,2470.824,2024-1-05T11:30:54Z
2024-01-05T09:31:26Z,42.805,6.029,13.3060,4.60157,2470.777,2024-1-05T11:33:58Z
2024-01-05T09:34:29Z,42.805,6.029,13.3050,4.60139,2470.8,2024-1-05T11:37:01Z
2024-01-05T09:37:32Z,42.805,6.029,13.3054,4.60137,2470.833,2024-1-05T11:40:04Z
2024-01-05T09:40:35Z,42.805,6.029,13.3048,4.60140,2470.8,2024-1-05T11:43:07Z
2024-01-05T09:43:38Z,42.805,6.029,13.3050,4.60140,2470.81,2024-1-05T11:46:10Z
2024-01-05T09:46:41Z,42.805,6.029,13.3051,4.60142,2470.787,2024-1-05T11:49:13Z
2024-01-05T09:49:44Z,42.805,6.029,13.3046,4.60141,2470.81,2024-1-05T11:52:16Z
2024-01-05T09:52:48Z,42.805,6.029,13.3046,4.60135,2470.787,2024-1-05T11:55:19Z
2024-01-05T09:55:51Z,42.805,6.029,13.3044,4.60139,2470.787,2024-1-05T11:58:22Z
2024-01-05T09:58:54Z,42.805,6.029,13.3046,4.60137,2470.824,2024-1-05T12:01:25Z
2024-01-05T10:01:57Z,42.805,6.029,13.3042,4.60144,2470.81,2024-1-05T12:04:28Z
2024-01-05T10:05:00Z,42.805,6.029,13.3044,4.60139,2470.8,2024-1-05T12:07:31Z
2024-01-05T10:08:03Z,42.805,6.029,13.3047,4.60136,2470.787,2024-1-05T12:10:34Z
2024-01-05T10:11:06Z,42.805,6.029,13.3047,4.60134,2470.787,2024-1-05T12:13:38Z
2024-01-05T10:14:09Z,42.805,6.029,13.3048,4.60133,2470.824,2024-1-05T12:16:41Z
2024-01-05T10:17:12Z,42.805,6.029,13.3046,4.60142,2470.773,2024-1-05T12:19:44Z
2024-01-05T10:20:15Z,42.805,6.029,13.3048,4.60170,2470.777,2024-1-05T12:22:47Z
2024-01-05T10:23:18Z,42.805,6.029,13.3041,4.60135,2470.81,2024-1-05T12:25:50Z
2024-01-05T10:26:21Z,42.805,6.029,13.3046,4.60152,2470.824,2024-1-05T12:28:53Z
2024-01-05T10:29:25Z,42.805,6.029,13.3049,4.60140,2470.81,2024-1-05T12:31:56Z
2024-01-05T10:32:28Z,42.805,6.029,13.3051,4.60152,2470.824,2024-1-05T12:34:59Z
2024-01-05T10:35:31Z,42.805,6.029,13.3049,4.60137,2470.833,2024-1-05T12:38:02Z
2024-01-05T10:38:34Z,42.805,6.029,13.3048,4.60137,2470.787,2024-1-05T12:41:05Z
2024-01-05T10:41:37Z,42.805,6.029,13.3046,4.60147,2470.8,2024-1-05T12:44:08Z
2024-01-05T10:44:40Z,42.805,6.029,13.3046,4.60140,2470.81,2024-1-05T12:47:12Z
2024-01-05T10:47:43Z,42.805,6.029,13.3043,4.60147,2470.787,2024-1-05T12:50:15Z
2024-01-05T10:50:46Z,42.805,6.029,13.3044,4.60153,2470.871,2024-1-05T12:53:18Z
2024-01-05T10:53:49Z,42.805,6.029,13.3044,4.60144,2470.81,2024-1-05T12:56:21Z
2024-01-05T10:56:52Z,42.805,6.029,13.3046,4.60152,2470.833,2024-1-05T12:59:24Z
2024-01-05T10:59:55Z,42.805,6.029,13.3047,4.60147,2470.847,2024-1-05T13:02:27Z
2024-01-05T11:02:58Z,42.805,6.029,13.3046,4.60133,2470.847,2024-1-05T13:05:30Z
2024-01-05T11:06:02Z,42.805,6.029,13.3043,4.60155,2470.81,2024-1-05T13:08:33Z
2024-01-05T11:09:05Z,42.805,6.029,13.3046,4.60157,2470.833,2024-1-05T13:11:36Z
2024-01-05T11:12:08Z,42.805,6.029,13.3045,4.60157,2470.857,2024-1-05T13:14:39Z
2024-01-05T11:15:11Z,42.805,6.029,13.3052,4.60137,2470.833,2024-1-05T13:17:42Z
2024-01-05T11:18:14Z,42.805,6.029,13.3048,4.60155,2470.81,2024-1-05T13:20:45Z
2024-01-05T11:21:17Z,42.805,6.029,13.3047,4.60143,2470.833,2024-1-05T13:23:49Z
2024-01-05T11:24:20Z,42.805,6.029,13.3048,4.60143,2470.824,2024-1-05T13:26:52Z
2024-01-05T11:27:23Z,42.805,6.029,13.3052,4.60140,2470.833,2024-1-05T13:29:55Z
